Regional Weather Roundup
Issued by NWS Goodland, KS

Home | Current Version | Previous Version | Text Only | Print | Product List | Glossary Off
Versions: 1 2 3 4 5 6 7 8 9 10 11 12 13 14 15 16 17 18 19 20 21 22 23 24 25 26 27 28 29 30 31 32 33 34 35 36 37 38 39 40 41 42 43 44 45 46 47 48 49 50

000
ASUS43 KGLD 252059
RWRGLD

GOODLAND FORECAST AREA HOURLY WEATHER ROUNDUP
NATIONAL WEATHER SERVICE GOODLAND KS
200 PM MST TUE NOV 25 2014

...OFFICIAL OBSERVATIONS...

CITY           SKY/WX    TMP DP  RH WIND       PRES   REMARKS
GOODLAND KS    PTSUNNY   50  14  23 NW20G25   29.88F
HILL CITY KS   CLOUDY    50  15  24 SW15G26   29.93F
IMPERIAL NEB   CLOUDY    49  17  28 W14G21    29.82F
MCCOOK NEB     CLOUDY    50  12  21 SW17G23   29.86F
AKRON CO       CLOUDY    47  11  23 W12       29.85F
BURLINGTON CO  CLOUDY    48   8  19 SW14      29.89F
LIMON CO       CLOUDY    46  13  26 NW20G29   29.88F
$$

...UNOFFICIAL OBSERVATIONS...

CITY           SKY/WX    TMP DP  RH WIND       PRES   REMARKS
COLBY KS       MOSUNNY   50  16  25 SW20      29.89F
GOVE KS          N/A     51  32  48 MISG        N/A
NORTON KS      CLOUDY    48  10  21 S16G22    29.89F
SHARON SPRINGS   N/A     50  14  23 SW14G23     N/A
TRIBUNE KS     PTSUNNY   52  21  30 SW15      29.92F
TRENTON NEB      N/A     48  32  54 W14         N/A
YUMA CO          N/A     50  12  21 W15G26      N/A
$$


USA.gov is the U.S. government's official web portal to all federal, state and local government web resources and services.